Bryce Canyon, UT

11:11 AM MST on December 15, 2019 (GMT -0700)
Bryce Canyon

Weather History for KBCE - August, 2019

Change the Weather History Date:

Sunday, August 11, 2019

  Actual Average Record
Temperature  
Mean Temperature 60 °F -  
Max Temperature 77 °F 77 °F 90 °F (1972)
Min Temperature 44 °F 45 °F 37 °F (1981)
Degree Days  
Heating Degree Days 4    
Growing Degree Days 10 (Base 50)    
Moisture  
Dew Point 37 °F    
Average Humidity 44    
Maximum Humidity 79    
Minimum Humidity 19    
Precipitation  
Precipitation 0.00 in - - ()
Sea Level Pressure  
Sea Level Pressure 29.94 in    
Wind  
Wind Speed 6 mph (West)    
Max Wind Speed 15 mph    
Max Gust Speed 22 mph    
Visibility 10 miles    
Events      
Averages and records for this station are not official NWS values.
T = Trace of Precipitation, MM = Missing Value Source: NWS Daily Summary

Daily Weather History Graph

Daily Weather History Graph

Search for Another Location

Airport or City:

Astronomy

Aug. 11, 2019 Rise Set
Actual Time 6:40 AM MDT 8:26 PM MDT
Civil Twilight 6:12 AM MDT 8:54 PM MDT
Nautical Twilight 5:38 AM MDT 9:28 PM MDT
Astronomical Twilight 5:01 AM MDT 10:04 PM MDT
Moon 6:06 PM MDT (8/11) 3:06 AM MDT (8/11)
Length of Visible Light 14h 42m
Length of Day
13h 45m
Waxing Gibbous, 87% of the Moon is Illuminated
Aug 11
Waxing Gibbous
Aug 15
Full
Aug 23
Last Quarter
Aug 30
New
Sep 5
First Quarter

Hourly Weather History & Observations

Time (MDT) Temp. Windchill Dew Point Humidity Pressure Visibility Wind Dir Wind Speed Gust Speed Precip Events Conditions
12:53 AM 54.0 °F - 41.0 °F 62% 29.90 in 10.0 mi West 5.8 mph - N/A   Clear
1:53 AM 53.1 °F - 42.1 °F 66% 29.88 in 10.0 mi NW 3.5 mph - N/A   Clear
2:53 AM 55.0 °F - 39.9 °F 57% 29.88 in 10.0 mi Calm Calm - N/A   Clear
3:53 AM 52.0 °F - 39.9 °F 63% 29.89 in 10.0 mi North 4.6 mph - N/A   Clear
4:53 AM 48.0 °F - 39.9 °F 74% 29.92 in 10.0 mi Calm Calm - N/A   Clear
5:53 AM 46.0 °F 44.8 °F 37.9 °F 73% 29.94 in 10.0 mi WNW 3.5 mph - N/A   Clear
6:53 AM 44.1 °F 40.8 °F 37.9 °F 79% 29.97 in 10.0 mi West 5.8 mph - N/A   Clear
7:53 AM 52.0 °F - 39.0 °F 61% 29.98 in 10.0 mi Calm Calm - N/A   Clear
8:53 AM 63.0 °F - 39.0 °F 41% 29.97 in 10.0 mi Variable 3.5 mph - N/A   Clear
9:53 AM 66.9 °F - 39.9 °F 37% 29.97 in 10.0 mi SW 15.0 mph - N/A   Clear
10:53 AM 68.0 °F - 35.1 °F 30% 30.00 in 10.0 mi SW 10.4 mph - N/A   Clear
11:53 AM 71.1 °F - 33.1 °F 25% 29.98 in 10.0 mi SW 10.4 mph - N/A   Clear
12:53 PM 73.0 °F - 32.0 °F 22% 29.96 in 10.0 mi West 12.7 mph 19.6 mph N/A   Clear
1:53 PM 73.0 °F - 34.0 °F 24% 29.95 in 10.0 mi West 8.1 mph 20.7 mph N/A   Clear
2:53 PM 73.9 °F - 34.0 °F 23% 29.92 in 10.0 mi Variable 4.6 mph - N/A   Clear
3:53 PM 75.9 °F - 34.0 °F 22% 29.92 in 10.0 mi SSW 9.2 mph - N/A   Clear
4:53 PM 77.0 °F - 32.0 °F 19% 29.91 in 10.0 mi WNW 13.8 mph - N/A   Clear
5:53 PM 75.9 °F - 35.1 °F 23% 29.91 in 10.0 mi WSW 8.1 mph - N/A   Clear
6:53 PM 73.9 °F - 32.0 °F 21% 29.93 in 10.0 mi WSW 12.7 mph 21.9 mph N/A   Clear
7:53 PM 70.0 °F - 34.0 °F 27% 29.93 in 10.0 mi WSW 11.5 mph - N/A   Clear
8:53 PM 62.1 °F - 35.1 °F 37% 29.93 in 10.0 mi WSW 3.5 mph - N/A   Clear
9:53 PM 57.0 °F - 35.1 °F 44% 29.97 in 10.0 mi WNW 4.6 mph - N/A   Clear
10:53 PM 52.0 °F - 37.0 °F 57% 30.00 in 10.0 mi WSW 3.5 mph - N/A   Clear
11:53 PM 48.0 °F - 37.0 °F 66% 30.00 in 10.0 mi WSW 5.8 mph - N/A   Clear